BSAT-3C (JCSAT-110R)

Last updated on Wed Jul 09 2025 00:02:44 GMT+0000 (Coordinated Universal Time)

1 37776U 11041B 25189.63253076 -.00000335 00000+0 00000+0 0 9994 2 37776 0.0103 340.9510 0000616 196.5145 87.0219 1.00271547 47030
UTC large
Height (km)
Speed (km/s)
/
Latitude / Longitude
Inclination (degrees)
Orbital Period (minutes)
Azimuth
Elevation
Range (km)
Doppler Factor

Next 0 passes for location: London (51.5072 / 0.1276)

Sorry there are no passes over London.